FW6744 Weather Reports


Display with metric or nautical units.
time (UTC)temp
F
wind
direction
speed
MPH
gust
MPH
rain 1hr
in
rain 24hr
in
rain mn
in
humidity
%
barometer
mb
20260904101830 75 43 0.0 0.0 0.00 0.00 0.00 90 1010.0
20260904101549 75 44 0.0 0.0 0.00 0.00 0.00 90 1009.9
20260904100818 75 43 0.0 0.0 0.00 0.00 0.00 90 1009.9
20260904100312 75 43 0.0 0.0 0.00 0.00 0.00 90 1010.0
20260904095806 75 43 0.0 0.0 0.00 0.00 0.00 89 1010.0
20260904095259 75 43 0.0 0.0 0.00 0.00 0.00 89 1010.0
20260904094754 75 43 0.0 0.0 0.00 0.00 0.00 89 1010.0
20260904094248 76 43 0.0 0.0 0.00 0.00 0.00 89 1010.0
20260904093742 76 43 0.0 0.0 0.00 0.00 0.00 89 1010.0
20260904093236 76 43 0.0 0.0 0.00 0.00 0.00 88 1010.0
20260904092730 76 43 0.0 0.0 0.00 0.00 0.00 88 1010.1
20260904092224 76 43 0.0 0.0 0.00 0.00 0.00 88 1010.1
20260904091941 76 43 0.0 0.0 0.00 0.00 0.00 87 1010.2
20260904091211 76 43 0.0 0.0 0.00 0.00 0.00 87 1010.2
20260904090705 76 43 0.0 0.0 0.00 0.00 0.00 87 1010.3
20260904090426 76 43 0.0 0.0 0.00 0.00 0.00 87 1010.2
20260904085653 77 43 0.0 0.0 0.00 0.00 0.00 86 1010.3
20260904085148 77 43 0.0 0.0 0.00 0.00 0.00 86 1010.3
20260904084642 77 43 0.0 0.0 0.00 0.00 0.00 86 1010.3
20260904084356 77 43 0.0 0.0 0.00 0.00 0.00 85 1010.3
20260904083630 77 43 0.0 0.0 0.00 0.00 0.00 85 1010.2
20260904083123 77 43 0.0 0.0 0.00 0.00 0.00 85 1010.1
20260904082618 77 43 0.0 0.0 0.00 0.00 0.00 85 1010.1
20260904082112 77 43 0.0 0.0 0.00 0.00 0.00 85 1010.1
20260904081605 78 43 0.0 0.0 0.00 0.00 0.00 85 1010.1
20260904081059 78 43 0.0 0.0 0.00 0.00 0.00 84 1010.0
20260904080603 78 43 0.0 0.0 0.00 0.00 0.00 84 1009.9
20260904080048 78 43 0.0 0.0 0.00 0.00 0.00 83 1010.0
20260904075542 78 43 0.0 0.0 0.00 0.00 0.00 82 1010.0
20260904075036 78 43 0.0 0.0 0.00 0.00 0.00 82 1009.9
20260904074530 78 43 0.0 0.0 0.00 0.00 0.00 82 1010.0
20260904074024 79 43 0.0 0.0 0.00 0.00 0.00 82 1009.9
20260904073518 79 43 0.0 1.0 0.00 0.00 0.00 82 1009.8
20260904073012 79 43 0.0 1.0 0.00 0.00 0.00 82 1009.8
20260904072506 79 44 0.0 0.0 0.00 0.00 0.00 81 1009.6
20260904072000 79 43 0.0 0.0 0.00 0.00 0.00 81 1009.5
20260904071714 79 43 0.0 1.0 0.00 0.00 0.00 81 1009.7
20260904071432 79 43 0.0 1.0 0.00 0.00 0.00 81 1009.6
20260904070442 80 43 0.0 0.0 0.00 0.00 0.00 80 1009.6
20260904070203 80 43 0.0 0.0 0.00 0.00 0.00 80 1009.5
20260904065430 80 43 0.0 0.0 0.00 0.00 0.00 79 1009.7
20260904064924 80 43 0.0 0.0 0.00 0.00 0.00 80 1009.8
20260904064418 81 43 0.0 0.0 0.00 0.00 0.00 79 1009.8
20260904063912 81 43 0.0 1.0 0.00 0.00 0.00 79 1009.8
20260904063414 81 43 0.0 1.0 0.00 0.00 0.00 78 1009.8
20260904063138 82 43 0.0 1.0 0.00 0.00 0.00 78 1010.0
20260904062411 82 43 0.0 1.0 0.00 0.00 0.00 78 1010.0
20260904062132 82 43 0.0 4.0 0.00 0.00 0.00 79 1010.2
20260904061409 83 43 0.0 4.0 0.00 0.00 0.00 79 1010.5
20260904060910 83 30 0.0 2.0 0.00 0.00 0.00 80 1010.6
20260904060410 83 34 1.0 2.0 0.00 0.00 0.00 79 1010.7
20260904055908 84 35 1.0 3.0 0.00 0.00 0.00 79 1010.8
20260904055409 84 33 2.0 6.0 0.00 0.00 0.00 79 1010.9
20260904054908 84 174 1.0 6.0 0.00 0.00 0.00 78 1010.9
20260904054408 85 29 1.0 5.0 0.00 0.00 0.00 76 1010.5
20260904054126 85 115 0.0 5.0 0.00 0.00 0.00 76 1009.8
20260904053406 85 166 1.0 6.0 0.00 0.00 0.00 76 1009.7
20260904052908 85 212 1.0 6.0 0.00 0.00 0.00 76 1009.7
20260904052403 84 22 0.0 3.0 0.00 0.00 0.00 76 1009.7
20260904051903 84 211 0.0 3.0 0.00 0.00 0.00 77 1009.7
20260904051404 84 231 0.0 3.0 0.00 0.00 0.00 78 1009.7
20260904050902 84 176 0.0 1.0 0.00 0.00 0.00 79 1009.8
20260904050404 83 175 0.0 1.0 0.00 0.00 0.00 79 1009.8
20260904045903 83 226 0.0 1.0 0.00 0.00 0.00 80 1009.9
20260904045402 83 226 0.0 1.0 0.00 0.00 0.00 80 1010.1
20260904044903 83 225 0.0 0.0 0.00 0.00 0.00 81 1010.0
20260904044404 83 225 0.0 0.0 0.00 0.00 0.00 81 1010.0
20260904043902 83 225 0.0 0.0 0.00 0.00 0.00 81 1010.1
20260904043623 83 225 0.0 0.0 0.00 0.00 0.00 81 1010.1
20260904042902 83 225 0.0 0.0 0.00 0.00 0.00 81 1010.0
20260904042404 83 225 0.0 0.0 0.00 0.00 0.00 81 1010.1
20260904042128 83 225 0.0 1.0 0.00 0.00 0.00 81 1010.1
20260904041404 83 225 0.0 1.0 0.00 0.00 0.00 81 1010.1
20260904040905 83 225 0.0 0.0 0.00 0.00 0.00 81 1010.2
20260904040406 83 225 0.0 1.0 0.00 0.00 0.00 81 1010.2
20260904035905 83 225 0.0 1.0 0.00 0.00 0.00 81 1010.1
20260904035619 82 225 0.0 0.0 0.00 0.00 0.00 82 1010.3
20260904034853 82 225 0.0 0.0 0.00 0.00 0.00 83 1010.3
20260904034346 82 226 0.0 0.0 0.00 0.00 0.00 83 1010.3
20260904033841 81 225 0.0 0.0 0.00 0.00 0.00 84 1010.2
20260904033558 81 226 0.0 0.0 0.00 0.00 0.00 84 1010.4
20260904032828 81 226 0.0 0.0 0.00 0.00 0.00 85 1010.5
20260904032323 81 226 0.0 0.0 0.00 0.00 0.00 85 1010.6
20260904032034 81 226 0.0 0.0 0.00 0.00 0.00 85 1010.4
20260904031310 82 225 0.0 0.0 0.00 0.00 0.00 85 1010.4
20260904031024 82 226 0.0 0.0 0.00 0.00 0.00 85 1010.3
20260904030258 82 226 0.0 0.0 0.00 0.00 0.00 85 1010.3
20260904025753 82 226 0.0 0.0 0.00 0.00 0.00 85 1010.3
20260904025247 82 226 0.0 0.0 0.00 0.00 0.00 85 1010.4
20260904024741 82 225 0.0 0.0 0.00 0.00 0.00 85 1010.3
20260904024235 82 226 0.0 0.0 0.00 0.00 0.00 86 1010.3
20260904023729 82 226 0.0 0.0 0.00 0.00 0.00 86 1010.3
20260904023451 82 225 0.0 0.0 0.00 0.00 0.00 87 1010.3
20260904022717 82 226 0.0 0.0 0.00 0.00 0.00 87 1010.3
20260904022211 82 226 0.0 0.0 0.00 0.00 0.00 88 1010.3
20260904022153 82 225 0.0 0.0 0.00 0.00 0.00 88 1010.2
20260904021159 82 226 0.0 0.0 0.00 0.00 0.00 87 1010.2
20260904020652 82 226 0.0 0.0 0.00 0.00 0.00 87 1010.1
20260904020146 82 226 0.0 0.0 0.00 0.00 0.00 87 1010.3
20260904015901 82 225 0.0 0.0 0.00 0.00 0.00 87 1010.4
20260904015140 82 225 0.0 0.0 0.00 0.00 0.00 87 1010.5
20260904014642 82 226 0.0 0.0 0.00 0.00 0.00 87 1010.5
20260904014638 82 225 0.0 0.0 0.00 0.00 0.00 87 1010.5
20260904013640 82 226 0.0 0.0 0.00 0.00 0.00 86 1010.6
20260904013138 83 226 0.0 0.0 0.00 0.00 0.00 85 1010.6
20260904012638 83 226 0.0 0.0 0.00 0.00 0.00 85 1010.6
20260904012140 83 226 0.0 0.0 0.00 0.00 0.00 85 1010.8
20260904011637 83 226 0.0 0.0 0.00 0.00 0.00 85 1010.8
20260904011356 83 226 0.0 0.0 0.00 0.00 0.00 84 1010.7
20260904010637 83 226 0.0 0.0 0.00 0.00 0.00 84 1010.8
20260904010358 83 226 0.0 0.0 0.00 0.00 0.00 84 1010.9
20260904005855 83 225 0.0 0.0 0.00 0.00 0.00 84 1011.0
20260904005139 84 226 0.0 0.0 0.00 0.00 0.00 84 1011.0
20260904004633 84 226 0.0 0.0 0.00 0.00 0.00 83 1011.0
20260904004401 84 226 0.0 0.0 0.00 0.00 0.00 84 1010.9
20260904003633 84 225 0.0 0.0 0.00 0.00 0.00 83 1010.9
20260904003131 84 226 0.0 0.0 0.00 0.00 0.00 82 1011.0
20260904002631 84 226 0.0 0.0 0.00 0.00 0.00 82 1010.8
20260904002131 85 226 0.0 0.0 0.00 0.00 0.00 82 1010.7
20260904001852 85 226 0.0 0.0 0.00 0.00 0.00 81 1010.6
20260904001131 85 226 0.0 0.0 0.00 0.00 0.00 81 1010.6
20260904000632 85 226 0.0 0.0 0.00 0.00 0.00 81 1010.5
20260904000120 86 226 0.0 0.0 0.00 0.00 0.00 80 1010.3
20260903235128 86 226 0.0 0.0 0.00 0.00 0.00 80 1010.2
20260903234627 86 226 0.0 0.0 0.00 0.00 0.00 79 1010.0
20260903234344 87 226 0.0 0.0 0.00 0.00 0.00 79 1010.1
20260903234227 86 225 0.0 0.0 0.00 0.00 0.00 79 1009.9
20260903233126 87 226 0.0 0.0 0.00 0.00 0.00 78 1010.1
20260903232853 87 226 0.0 0.0 0.00 0.00 0.00 78 1010.0
20260903232128 87 226 0.0 0.0 0.00 0.00 0.00 78 1010.0
20260903231622 88 225 0.0 0.0 0.00 0.00 0.00 77 1010.0
20260903231121 88 226 0.0 0.0 0.00 0.00 0.00 76 1010.0
20260903230622 88 226 0.0 0.0 0.00 0.00 0.00 76 1010.0
20260903230121 88 226 0.0 0.0 0.00 0.00 0.00 76 1009.8
20260903225838 89 226 0.0 0.0 0.00 0.00 0.00 75 1009.8
20260903225119 89 226 0.0 0.0 0.00 0.00 0.00 75 1009.9
20260903224620 89 226 0.0 0.0 0.00 0.00 0.00 74 1009.8
20260903224120 89 226 0.0 0.0 0.00 0.00 0.00 74 1009.7
20260903223618 89 226 0.0 0.0 0.00 0.00 0.00 73 1009.8
20260903223118 90 226 0.0 1.0 0.00 0.00 0.00 72 1009.9
20260903222619 90 226 0.0 1.0 0.00 0.00 0.00 71 1009.7
20260903222118 90 225 0.0 1.0 0.00 0.00 0.00 70 1009.7
20260903221622 91 225 0.0 1.0 0.00 0.00 0.00 70 1009.7
20260903221122 91 220 0.0 0.0 0.00 0.00 0.00 69 1009.8
20260903220616 92 220 0.0 0.0 0.00 0.00 0.00 68 1009.8
20260903220109 92 220 0.0 0.0 0.00 0.00 0.00 67 1009.9
20260903215827 93 220 0.0 0.0 0.00 0.00 0.00 66 1010.0
20260903215057 94 220 0.0 0.0 0.00 0.00 0.00 65 1010.0
20260903214552 94 220 0.0 1.0 0.00 0.00 0.00 64 1009.9
20260903214049 95 221 0.0 1.0 0.00 0.00 0.00 63 1010.1
20260903213549 96 221 0.0 1.0 0.00 0.00 0.00 61 1010.0
20260903213048 97 220 0.0 2.0 0.00 0.00 0.00 58 1009.9
20260903212548 97 220 0.0 2.0 0.00 0.00 0.00 55 1009.9
20260903212050 97 79 0.0 1.0 0.00 0.00 0.00 59 1009.8
20260903211548 96 59 0.0 1.0 0.00 0.00 0.00 59 1009.8
20260903211045 97 188 0.0 1.0 0.00 0.00 0.00 61 1010.0
20260903210544 97 192 0.0 0.0 0.00 0.00 0.00 60 1010.0
20260903210040 97 192 0.0 1.0 0.00 0.00 0.00 60 1010.1
20260903205541 98 192 0.0 1.0 0.00 0.00 0.00 56 1010.1
20260903205044 98 194 0.0 0.0 0.00 0.00 0.00 58 1010.2
20260903204539 98 194 0.0 1.0 0.00 0.00 0.00 56 1010.1
20260903204302 98 194 0.0 1.0 0.00 0.00 0.00 53 1010.2
20260903203539 97 217 0.0 1.0 0.00 0.00 0.00 53 1010.3
20260903203038 97 39 0.0 1.0 0.00 0.00 0.00 55 1010.2
20260903202536 98 39 0.0 1.0 0.00 0.00 0.00 56 1010.3
20260903202037 98 39 0.0 1.0 0.00 0.00 0.00 53 1010.4
20260903201756 99 39 0.0 0.0 0.00 0.00 0.00 56 1010.5
20260903201024 99 39 0.0 1.0 0.00 0.00 0.00 55 1010.5
20260903200519 98 39 0.0 1.0 0.00 0.00 0.00 55 1010.6
20260903200013 98 39 0.0 1.0 0.00 0.00 0.00 54 1010.8
20260903195506 98 34 0.0 1.0 0.00 0.00 0.00 54 1010.8
20260903195000 98 33 1.0 3.0 0.00 0.00 0.00 54 1010.8
20260903194722 99 34 1.0 3.0 0.00 0.00 0.00 52 1010.9
20260903193948 99 37 1.0 3.0 0.00 0.00 0.00 51 1011.0
20260903193442 99 33 1.0 3.0 0.00 0.00 0.00 52 1011.0
20260903192937 100 34 0.0 3.0 0.00 0.00 0.00 48 1011.1
20260903192431 100 33 0.0 1.0 0.00 0.00 0.00 52 1011.1
20260903191925 100 161 0.0 3.0 0.00 0.00 0.00 52 1011.2
20260903191419 98 136 0.0 3.0 0.00 0.00 0.00 54 1011.2
20260903190912 98 218 0.0 2.0 0.00 0.00 0.00 56 1011.3
20260903190900 96 30 0.0 2.0 0.00 0.00 0.00 57 1011.4
20260903185857 96 39 0.0 0.0 0.00 0.00 0.00 59 1011.5
20260903185613 96 46 0.0 0.0 0.00 0.00 0.00 60 1011.6
20260903184845 97 37 0.0 0.0 0.00 0.00 0.00 62 1011.7
20260903184338 97 37 0.0 0.0 0.00 0.00 0.00 61 1011.7
20260903184053 96 37 0.0 0.0 0.00 0.00 0.00 61 1011.7
20260903183520 98 31 0.0 0.0 0.00 0.00 0.00 57 1012.0
20260903183410 97 33 0.0 0.0 0.00 0.00 0.00 59 1011.8
20260903182315 98 212 0.0 0.0 0.00 0.00 0.00 60 1012.0
20260903181809 98 234 0.0 1.0 0.00 0.00 0.00 61 1012.0
20260903181522 97 231 0.0 1.0 0.00 0.00 0.00 59 1012.1
20260903180757 97 214 0.0 3.0 0.00 0.00 0.00 59 1012.2
20260903180523 96 309 1.0 3.0 0.00 0.00 0.00 60 1012.2
20260903175745 96 189 0.0 3.0 0.00 0.00 0.00 61 1012.4
20260903175239 96 220 1.0 4.0 0.00 0.00 0.00 62 1012.5
20260903174733 95 226 1.0 4.0 0.00 0.00 0.00 62 1012.6
20260903174444 94 195 0.0 1.0 0.00 0.00 0.00 65 1012.5
20260903173940 94 51 1.0 4.0 0.00 0.00 0.00 66 1012.5
20260903173214 94 33 1.0 4.0 0.00 0.00 0.00 64 1012.6
20260903172708 94 16 0.0 3.0 0.00 0.00 0.00 65 1012.6
20260903172425 94 37 0.0 2.0 0.00 0.00 0.00 64 1012.7
20260903171657 94 160 0.0 3.0 0.00 0.00 0.00 66 1012.7
20260903171151 93 27 1.0 3.0 0.00 0.00 0.00 66 1012.7
20260903170904 94 28 0.0 3.0 0.00 0.00 0.00 65 1012.7
20260903170139 94 177 0.0 1.0 0.00 0.00 0.00 66 1012.8
20260903165858 93 224 0.0 1.0 0.00 0.00 0.00 67 1012.8
20260903165127 92 212 1.0 3.0 0.00 0.00 0.00 70 1012.9
20260903164621 91 56 1.0 3.0 0.00 0.00 0.00 70 1013.1
20260903164114 91 52 0.0 2.0 0.00 0.00 0.00 71 1013.1
20260903163831 91 52 0.0 2.0 0.00 0.00 0.00 70 1013.1
20260903163102 90 53 0.0 1.0 0.00 0.00 0.00 72 1013.1
20260903162558 89 37 0.0 1.0 0.00 0.00 0.00 73 1013.2
20260903162050 88 34 0.0 3.0 0.00 0.00 0.00 75 1013.2
20260903161545 88 34 1.0 3.0 0.00 0.00 0.00 75 1013.3
20260903161039 87 266 0.0 2.0 0.00 0.00 0.00 76 1013.3
20260903160533 87 144 0.0 1.0 0.00 0.00 0.00 77 1013.4
20260903160027 87 145 0.0 2.0 0.00 0.00 0.00 78 1013.4
20260903155745 86 32 0.0 2.0 0.00 0.00 0.00 78 1013.4
20260903155241 86 35 0.0 2.0 0.00 0.00 0.00 80 1013.3
20260903154516 86 35 0.0 2.0 0.00 0.00 0.00 79 1013.4
20260903154016 85 28 0.0 2.0 0.00 0.00 0.00 80 1013.4
20260903153517 85 221 0.0 1.0 0.00 0.00 0.00 80 1013.5
20260903153501 85 32 0.0 2.0 0.00 0.00 0.00 81 1013.5
20260903152517 85 32 0.0 2.0 0.00 0.00 0.00 81 1013.5
20260903152016 85 42 0.0 2.0 0.00 0.00 0.00 81 1013.5
20260903151736 85 36 0.0 2.0 0.00 0.00 0.00 82 1013.4
20260903151015 85 36 0.0 2.0 0.00 0.00 0.00 81 1013.4
20260903150515 85 41 0.0 1.0 0.00 0.00 0.00 83 1013.4
20260903150016 85 62 0.0 2.0 0.00 0.00 0.00 83 1013.3
20260903145743 85 46 0.0 2.0 0.00 0.00 0.00 82 1013.3
20260903145016 85 43 0.0 2.0 0.00 0.00 0.00 82 1013.3
20260903144518 85 94 0.0 1.0 0.00 0.00 0.00 82 1013.2
20260903144013 85 176 0.0 2.0 0.00 0.00 0.00 82 1013.1
20260903143514 84 210 0.0 2.0 0.00 0.00 0.00 81 1013.2
20260903143242 84 163 0.0 1.0 0.00 0.00 0.00 82 1013.1
20260903142738 84 190 0.0 2.0 0.00 0.00 0.00 81 1013.0
20260903142013 84 37 1.0 4.0 0.00 0.00 0.00 81 1013.0
20260903141512 84 11 1.0 4.0 0.00 0.00 0.00 81 1013.1
20260903141012 83 227 0.0 2.0 0.00 0.00 0.00 82 1013.0
20260903140735 83 63 0.0 1.0 0.00 0.00 0.00 82 1012.9
20260903140013 83 219 0.0 1.0 0.00 0.00 0.00 82 1012.7
20260903135511 82 207 0.0 1.0 0.00 0.00 0.00 82 1012.6
20260903135013 82 64 0.0 1.0 0.00 0.00 0.00 83 1012.6
20260903134513 81 105 0.0 1.0 0.00 0.00 0.00 84 1012.6
20260903134011 81 212 0.0 1.0 0.00 0.00 0.00 85 1012.6
20260903133512 80 212 0.0 4.0 0.00 0.00 0.00 87 1012.7
20260903133012 80 212 0.0 4.0 0.00 0.00 0.00 88 1012.7
20260903132511 79 151 0.0 1.0 0.00 0.00 0.00 90 1012.9
20260903132011 79 221 0.0 2.0 0.00 0.00 0.00 92 1013.0
20260903131512 78 222 0.0 2.0 0.00 0.00 0.00 94 1013.0
20260903131013 77 205 0.0 1.0 0.00 0.00 0.00 96 1013.0
20260903130741 77 173 0.0 0.0 0.00 0.00 0.00 97 1013.1
20260903130016 77 173 0.0 0.0 0.00 0.00 0.00 97 1013.1
20260903125514 77 173 0.0 0.0 0.00 0.00 0.00 97 1013.2
20260903125012 77 103 0.0 0.0 0.00 0.00 0.00 98 1013.3
20260903124730 77 103 0.0 0.0 0.00 0.00 0.00 98 1013.3
20260903124013 77 103 0.0 0.0 0.00 0.00 0.00 98 1013.4
20260903123510 77 103 0.0 0.0 0.00 0.00 0.00 98 1013.3
20260903123008 76 103 0.0 0.0 0.00 0.00 0.00 98 1013.3
20260903122505 76 103 0.0 0.0 0.00 0.00 0.00 98 1013.2
20260903122004 76 103 0.0 0.0 0.00 0.00 0.00 98 1013.3
20260903121501 76 103 0.0 0.0 0.00 0.00 0.00 98 1013.3
20260903121001 76 103 0.0 0.0 0.00 0.00 0.00 98 1013.3
20260903120458 75 103 0.0 0.0 0.00 0.00 0.00 98 1013.3
20260903115957 75 103 0.0 0.0 0.00 0.00 0.00 98 1013.3
20260903115456 75 103 0.0 0.0 0.00 0.00 0.00 98 1013.3
20260903114956 75 103 0.0 0.0 0.00 0.00 0.00 98 1013.3
20260903114454 74 103 0.0 0.0 0.00 0.00 0.00 98 1013.2
20260903113956 74 103 0.0 0.0 0.00 0.00 0.00 97 1013.1
20260903113455 74 103 0.0 0.0 0.00 0.00 0.00 97 1013.1
20260903113432 74 103 0.0 0.0 0.00 0.00 0.00 97 1013.0
20260903112710 74 103 0.0 0.0 0.00 0.00 0.00 97 1013.0
20260903111937 74 103 0.0 0.0 0.00 0.00 0.00 97 1013.0
20260903111430 74 103 0.0 0.0 0.00 0.00 0.00 97 1012.8
20260903110925 74 103 0.0 0.0 0.00 0.00 0.00 97 1012.8
20260903110643 74 103 0.0 0.0 0.00 0.00 0.00 97 1012.7
20260903105912 74 103 0.0 0.0 0.00 0.00 0.00 97 1012.7
20260903105406 74 103 0.0 0.0 0.00 0.00 0.00 97 1012.7
20260903104901 74 103 0.0 0.0 0.00 0.00 0.00 97 1012.6
20260903104355 74 103 0.0 0.0 0.00 0.00 0.00 97 1012.6
20260903104117 74 103 0.0 0.0 0.00 0.00 0.00 97 1012.6
20260903103343 74 103 0.0 0.0 0.00 0.00 0.00 97 1012.6
20260903102837 75 103 0.0 0.0 0.00 0.00 0.00 97 1012.7
20260903102330 75 103 0.0 0.0 0.00 0.00 0.00 97 1012.6